CHF9473 RCCM-RCCM

Flight info

Callsign CHF9473
Flight time 0h 0m
Altitude 1500
Route LOCAL
Aircraft DA40/H-SDE3GHIJ2J3J5M1RVWXY/LB2D1

Departure

Time 2026-05-04 06:21
Airport Qimei Airport (RCCM)

Arrival

Time 2026-05-04 06:22
Airport Qimei Airport (RCCM)
Time Latitude Longitude Altitude Speed Heading
2026-05-04 05:57 23.21120 119.41758 44 ft 0 kts 289°
2026-05-04 06:17 23.21129 119.41751 44 ft 1 kts 339°
2026-05-04 06:17 23.21169 119.41727 44 ft 7 kts 282°
2026-05-04 06:17 23.21127 119.41697 44 ft 9 kts 188°
2026-05-04 06:18 23.21052 119.41669 44 ft 12 kts 191°
2026-05-04 06:18 23.20989 119.41644 44 ft 7 kts 195°
2026-05-04 06:18 23.20969 119.41625 44 ft 4 kts 340°
2026-05-04 06:20 23.22338 119.41767 501 ft 52 kts 349°
2026-05-04 06:20 23.22564 119.41298 604 ft 95 kts 284°
2026-05-04 06:21 23.19983 119.40698 849 ft 92 kts 140°
2026-05-04 06:21 23.19583 119.41090 639 ft 65 kts 84°
2026-05-04 06:22 23.19676 119.41405 471 ft 41 kts 25°
2026-05-04 06:22 23.19987 119.41347 308 ft 46 kts 356°
2026-05-04 06:25 23.19547 119.41765 829 ft 61 kts 347°
2026-05-04 06:25 23.19904 119.41328 688 ft 81 kts 329°
2026-05-04 06:26 23.20264 119.41338 616 ft 65 kts 30°
2026-05-04 06:26 23.20708 119.41495 234 ft 61 kts 21°
2026-05-04 06:26 23.21020 119.41646 84 ft 46 kts 13°
2026-05-04 06:26 23.21306 119.41750 44 ft 51 kts 14°
2026-05-04 06:27 23.20564 119.40849 561 ft 127 kts 184°
2026-05-04 06:28 23.19689 119.41065 670 ft 111 kts 130°
2026-05-04 06:28 23.19620 119.41485 716 ft 54 kts 21°
2026-05-04 06:28 23.20023 119.41385 656 ft 55 kts 357°
2026-05-04 06:28 23.20345 119.41366 430 ft 50 kts 22°
2026-05-04 06:29 23.20648 119.41477 179 ft 45 kts 26°
2026-05-04 06:29 23.20938 119.41608 84 ft 41 kts 20°
2026-05-04 06:29 23.21211 119.41715 44 ft 48 kts 15°
2026-05-04 06:29 23.21517 119.41821 222 ft 39 kts 14°
2026-05-04 06:30 23.21798 119.41882 340 ft 52 kts 350°
2026-05-04 06:30 23.21839 119.41338 480 ft 103 kts 246°
2026-05-04 06:30 23.21202 119.40876 540 ft 118 kts 198°
2026-05-04 06:30 23.20424 119.40694 622 ft 109 kts 159°
2026-05-04 06:31 23.20125 119.41177 573 ft 71 kts 53°
2026-05-04 06:31 23.20460 119.41426 322 ft 56 kts 17°
2026-05-04 06:31 23.20771 119.41542 180 ft 40 kts 22°
2026-05-04 06:31 23.21029 119.41650 57 ft 38 kts 15°
2026-05-04 06:32 23.21314 119.41747 97 ft 47 kts 14°
2026-05-04 06:33 23.20940 119.41615 82 ft 43 kts 21°
2026-05-04 06:34 23.21207 119.41713 44 ft 40 kts 17°
2026-05-04 06:34 23.21503 119.41838 215 ft 36 kts 12°
2026-05-04 06:34 23.21716 119.41653 172 ft 101 kts 255°
2026-05-04 06:34 23.21185 119.41327 317 ft 100 kts 168°
2026-05-04 06:35 23.20812 119.41563 199 ft 49 kts 24°
2026-05-04 06:36 23.21554 119.41340 44 ft 0 kts 14°